Retour au catalogue

STARLINK-11368

ActifCommunicationsVLEO
NORAD 61583·PAYLOAD·🇺🇸 United States

Lancé Oct 18, 2024 depuis Cape Canaveral Space Force Station

Loading…

Prochains Passages (prochaines 24 heures)

TLE

FraisSource: CelesTrak SupGP

Époque: Sep 14, 2026, 22:18 UTC

1 61583C 24187K   26257.92965278  .00033595  00000+0  27672-3 0  2573
2 61583  53.1568  83.6161 0001151  76.6205 124.4654 15.69693857    18

Suivez STARLINK-11368 en temps réel avec AllMySat

Download on the App Store